Location: Bartshausen
(51.8454°N, 9.8167°E)
Time: 07:26:56
(UTC+00:00)

Cosmos 2360 Rocket - Pass Details

Date: 08 November 2025
Orbit: 833 x 843 km, 71.0° (Epoch: 11 December)

Event Time Altitude Azimuth Distance (km) Brightness Sun altitude
Exits shadow 02:17:40 29° 59° (ENE) 1,502 3.9 -38.2°
Drops below altitude 10° 02:20:40 10° 40° (NE) 2,473 5.2 -37.8°
Sets 02:23:13 0° 34° (NE) 3,412 6.0 -37.4°
